DW4362 Weather Reports


Display with metric or nautical units.
time (UTC)temp
F
wind
direction
speed
MPH
gust
MPH
rain 1hr
in
rain 24hr
in
rain mn
in
humidity
%
barometer
mb
20220126111617 41 3 0.0 3.0 0.00 0.36 0.00 97 1020.5
20220126110116 41 339 0.0 1.0 0.00 0.37 0.00 97 1020.3
20220126104617 41 25 0.0 3.0 0.00 0.37 0.00 97 1020.1
20220126103117 41 22 0.0 3.0 0.00 0.38 0.00 97 1019.9
20220126101616 42 354 0.0 3.0 0.00 0.39 0.00 97 1019.8
20220126100116 42 351 0.0 4.0 0.00 0.42 0.00 97 1019.7
20220126094616 42 31 0.0 3.0 0.00 0.44 0.00 97 1019.5
20220126093116 43 17 0.0 4.0 0.00 0.47 0.00 98 1019.4
20220126091615 43 331 3.0 4.0 0.00 0.51 0.00 98 1019.4
20220126090116 44 345 5.0 6.0 0.00 0.54 0.00 98 1019.4
20220126084615 44 354 0.0 4.0 0.00 0.55 0.00 98 1019.2
20220126083115 44 8 0.0 5.0 0.00 0.56 0.00 98 1019.2
20220126081615 44 340 0.0 5.0 0.00 0.58 0.00 98 1018.7
20220126080116 44 348 0.0 1.0 0.00 0.59 0.00 98 1018.4
20220126074615 43 312 0.0 0.0 0.00 0.60 0.00 98 1018.5
20220126073115 43 312 0.0 0.0 0.00 0.60 0.00 98 1018.2
20220126071615 44 312 0.0 0.0 0.00 0.61 0.00 98 1018.2
20220126070115 44 312 0.0 0.0 0.00 0.61 0.00 98 1018.3
20220126064614 44 313 0.0 0.0 0.00 0.61 0.00 98 1018.3
20220126063114 44 311 0.0 1.0 0.00 0.61 0.00 98 1018.2
20220126061614 43 278 0.0 0.0 0.01 0.61 0.00 98 1018.1
20220126060114 43 278 0.0 0.0 0.01 0.61 0.00 98 1018.1
20220126054614 43 278 0.0 0.0 0.01 0.61 0.61 98 1018.2
20220126053114 44 278 0.0 0.0 0.01 0.61 0.61 98 1018.3
20220126051613 44 278 0.0 0.0 0.00 0.60 0.60 98 1018.3
20220126050113 44 278 0.0 0.0 0.00 0.60 0.60 98 1018.3
20220126044613 44 278 0.0 0.0 0.00 0.60 0.60 98 1018.5
20220126043113 45 278 0.0 0.0 0.00 0.60 0.60 98 1018.4
20220126041613 45 278 0.0 0.0 0.00 0.60 0.60 98 1018.4
20220126040113 45 278 0.0 0.0 0.00 0.60 0.60 97 1018.3
20220126034613 46 278 0.0 0.0 0.00 0.60 0.60 97 1018.5
20220126033112 47 278 0.0 0.0 0.00 0.60 0.60 97 1018.4
20220126031612 47 278 0.0 0.0 0.00 0.60 0.60 97 1018.1
20220126030112 48 277 0.0 1.0 0.00 0.60 0.60 97 1017.8
20220126024613 49 360 0.0 0.0 0.00 0.60 0.60 97 1017.5
20220126023112 49 344 0.0 0.0 0.00 0.60 0.60 97 1017.8
20220126021612 49 332 0.0 0.0 0.00 0.60 0.60 97 1017.7
20220126020112 49 331 0.0 0.0 0.00 0.60 0.60 97 1017.6
20220126014612 49 332 0.0 3.0 0.00 0.60 0.60 97 1017.6
20220126013112 49 347 0.0 1.0 0.00 0.60 0.60 97 1017.4
20220126011611 49 359 0.0 0.0 0.00 0.60 0.60 97 1017.1
20220126010111 49 359 0.0 1.0 0.00 0.60 0.60 97 1017.1
20220126004611 49 298 0.0 0.0 0.00 0.60 0.60 97 1016.9
20220126003111 50 297 0.0 0.0 0.00 0.60 0.60 97 1016.8
20220126001611 50 6 0.0 1.0 0.00 0.60 0.60 97 1016.6
20220126000111 50 207 0.0 0.0 0.00 0.60 0.60 97 1016.7
20220125234612 50 24 0.0 4.0 0.00 0.60 0.60 97 1016.4
20220125233111 50 22 0.0 4.0 0.00 0.60 0.60 97 1016.5
20220125231611 50 37 0.0 0.0 0.00 0.60 0.60 97 1016.2
20220125230111 50 4 0.0 1.0 0.00 0.60 0.60 97 1016.0
20220125224611 50 350 0.0 1.0 0.00 0.60 0.60 97 1015.7
20220125223111 50 271 0.0 3.0 0.00 0.60 0.60 97 1015.2
20220125221610 51 321 3.0 3.0 0.00 0.60 0.60 97 1015.3
20220125220110 51 8 0.0 3.0 0.00 0.60 0.60 97 1015.1
20220125214610 51 288 0.0 3.0 0.01 0.60 0.60 97 1014.8
20220125213109 51 311 0.0 0.0 0.02 0.60 0.60 97 1014.5
20220125211609 51 242 0.0 5.0 0.03 0.60 0.60 97 1014.8
20220125210109 51 326 0.0 3.0 0.04 0.60 0.60 97 1014.5
20220125204610 51 319 0.0 1.0 0.05 0.59 0.59 97 1014.7
20220125203109 51 347 0.0 4.0 0.06 0.58 0.58 97 1014.4
20220125201609 51 51 0.0 5.0 0.07 0.57 0.57 97 1014.1
20220125200109 51 94 0.0 1.0 0.06 0.56 0.56 97 1014.2
20220125194609 51 282 1.0 3.0 0.06 0.54 0.54 97 1014.1
20220125193110 50 311 0.0 1.0 0.07 0.52 0.52 97 1013.9
20220125191609 50 56 0.0 8.0 0.06 0.50 0.50 97 1013.9
20220125190109 50 84 0.0 5.0 0.08 0.50 0.50 97 1014.0
20220125184609 50 342 0.0 5.0 0.07 0.48 0.48 97 1013.5
20220125183109 50 6 0.0 1.0 0.04 0.45 0.45 97 1014.5
20220125181608 50 282 0.0 4.0 0.03 0.44 0.44 97 1014.4
20220125180108 50 261 0.0 4.0 0.02 0.42 0.42 97 1014.6
20220125174608 49 47 0.0 4.0 0.02 0.41 0.41 97 1014.6
20220125173108 49 115 0.0 3.0 0.02 0.41 0.41 97 1014.8
20220125171608 49 56 0.0 1.0 0.02 0.41 0.41 97 1015.1
20220125170107 49 51 0.0 0.0 0.01 0.40 0.40 97 1015.2
20220125164608 49 15 0.0 5.0 0.00 0.39 0.39 97 1015.3
20220125163107 48 325 0.0 1.0 0.00 0.39 0.39 97 1015.4
20220125161608 48 50 0.0 3.0 0.01 0.39 0.39 97 1015.4
20220125160107 48 130 0.0 5.0 0.01 0.39 0.39 97 1015.1
20220125154607 48 47 0.0 0.0 0.02 0.39 0.39 97 1015.3
20220125153107 47 34 0.0 4.0 0.02 0.39 0.39 97 1015.3
20220125151607 47 96 0.0 3.0 0.02 0.38 0.38 97 1015.2
20220125150106 47 310 0.0 4.0 0.02 0.38 0.38 97 1015.0
20220125144606 46 324 0.0 3.0 0.01 0.37 0.37 97 1015.1
20220125143106 46 33 0.0 1.0 0.01 0.37 0.37 97 1014.8
20220125141607 46 93 0.0 4.0 0.00 0.36 0.36 97 1015.0
20220125140106 46 12 0.0 5.0 0.00 0.36 0.36 97 1014.8
20220125134606 46 356 0.0 5.0 0.01 0.36 0.36 97 1014.5
20220125133106 45 7 3.0 5.0 0.03 0.36 0.36 97 1014.5
20220125131606 45 125 0.0 4.0 0.05 0.36 0.36 97 1014.0
20220125130106 45 51 0.0 3.0 0.09 0.36 0.36 97 1014.8
20220125124606 45 28 0.0 5.0 0.10 0.35 0.35 97 1015.2
20220125123106 45 8 0.0 1.0 0.08 0.33 0.33 97 1015.2
20220125121605 45 347 0.0 6.0 0.06 0.31 0.31 97 1015.1
20220125120105 45 360 0.0 1.0 0.03 0.27 0.27 97 1014.9
20220125114605 45 354 0.0 3.0 0.01 0.25 0.25 97 1014.3
20220125113105 45 8 0.0 1.0 0.02 0.25 0.25 97 1013.8